Buffalo, NY

4:33 AM EDT on October 23, 2019 (GMT -0400)
Buffalo Niagara International

Weather History for KBUF - August, 2019

Change the Weather History Date:

Tuesday, August 27, 2019

  Actual Average Record
Temperature  
Mean Temperature 70 °F 68 °F  
Max Temperature 76 °F 77 °F 99 °F (1948)
Min Temperature 63 °F 59 °F 46 °F (1969)
Degree Days  
Heating Degree Days 0 1  
Month to date heating degree days 2 12  
Since 1 June heating degree days 64 85  
Since 1 July heating degree days 2 21  
Cooling Degree Days 5 4  
Month to date cooling degree days 164 145  
Year to date cooling degree days 532 471  
Since 1 June cooling degree days 524 445  
Growing Degree Days 20 (Base 50)    
Moisture  
Dew Point 61 °F    
Average Humidity 76    
Maximum Humidity 93    
Minimum Humidity 58    
Precipitation  
Precipitation 0.19 in 0.10 in 3.21 in (1871)
Month to date precipitation 3.57 2.85  
Year to date precipitation 28.32 24.75  
Snow  
Snow 0.00 in 0.00 in 0.00 in ()
Month to date snowfall 0.0 0.0  
Since 1 June snowfall 0.0 0.0  
Since 1 July snowfall 0.0 0.0  
Snow Depth 0.00 in    
Sea Level Pressure  
Sea Level Pressure 29.89 in    
Wind  
Wind Speed 11 mph (South)    
Max Wind Speed 21 mph    
Max Gust Speed 26 mph    
Visibility 9 miles    
Events Rain    
T = Trace of Precipitation, MM = Missing Value Source: NWS Daily Summary

Daily Weather History Graph

Daily Weather History Graph

Search for Another Location

Airport or City:

Astronomy

Aug. 27, 2019 Rise Set
Actual Time 6:33 AM EDT 7:58 PM EDT
Civil Twilight 6:04 AM EDT 8:27 PM EDT
Nautical Twilight 5:28 AM EDT 9:03 PM EDT
Astronomical Twilight 4:50 AM EDT 9:41 PM EDT
Moon 2:50 AM EDT (8/27) 6:22 PM EDT (8/27)
Length of Visible Light 14h 23m
Length of Day
13h 24m
Waning Crescent, 11% of the Moon is Illuminated
Aug 27
Waning Crescent
Aug 30
New
Sep 5
First Quarter
Sep 14
Full
Sep 21
Last Quarter

Hourly Weather History & Observations

Time (EDT) Temp. Dew Point Humidity Pressure Visibility Wind Dir Wind Speed Gust Speed Precip Events Conditions
12:54 AM 66.0 °F 52.0 °F 60% 29.98 in 10.0 mi SE 10.4 mph - N/A   Overcast
1:54 AM 64.9 °F 53.1 °F 65% 29.97 in 10.0 mi SSE 9.2 mph - N/A   Overcast
2:54 AM 64.9 °F 54.0 °F 68% 29.95 in 10.0 mi SE 9.2 mph - N/A   Overcast
3:54 AM 64.9 °F 54.0 °F 68% 29.94 in 10.0 mi SE 4.6 mph - N/A   Overcast
4:54 AM 66.0 °F 55.0 °F 68% 29.92 in 10.0 mi SSE 8.1 mph - N/A   Overcast
5:54 AM 64.9 °F 55.9 °F 73% 29.92 in 10.0 mi South 5.8 mph - N/A   Partly Cloudy
6:54 AM 66.9 °F 57.0 °F 70% 29.92 in 10.0 mi South 12.7 mph - N/A   Mostly Cloudy
7:54 AM 64.0 °F 60.1 °F 87% 29.93 in 6.0 mi South 11.5 mph - 0.02 in Rain Light Rain
8:54 AM 64.9 °F 60.1 °F 84% 29.91 in 10.0 mi SSE 9.2 mph - 0.02 in   Overcast
9:54 AM 66.9 °F 61.0 °F 81% 29.91 in 10.0 mi South 5.8 mph - N/A   Overcast
10:52 AM 69.8 °F 60.8 °F 73% 29.90 in 10.0 mi South 15.0 mph - N/A   Mostly Cloudy
10:54 AM 70.0 °F 61.0 °F 73% 29.90 in 10.0 mi South 16.1 mph - N/A   Mostly Cloudy
11:44 AM 71.1 °F 62.1 °F 73% 29.89 in 10.0 mi South 15.0 mph - 0.00 in   Mostly Cloudy
11:54 AM 73.0 °F 62.1 °F 68% 29.88 in 10.0 mi South 20.7 mph 25.3 mph 0.00 in   Mostly Cloudy
12:54 PM 73.9 °F 62.1 °F 66% 29.87 in 10.0 mi South 16.1 mph 23.0 mph N/A   Mostly Cloudy
1:54 PM 75.9 °F 63.0 °F 64% 29.85 in 10.0 mi SSW 13.8 mph - N/A   Mostly Cloudy
2:51 PM 73.4 °F 64.4 °F 73% 29.86 in 10.0 mi SSW 12.7 mph - 0.00 in Rain Light Rain
2:54 PM 73.0 °F 64.9 °F 76% 29.85 in 10.0 mi SSW 9.2 mph - 0.00 in Rain Light Rain
3:54 PM 73.9 °F 64.0 °F 71% 29.84 in 10.0 mi South 19.6 mph 24.2 mph 0.00 in Rain Light Rain
4:54 PM 73.0 °F 64.0 °F 73% 29.84 in 10.0 mi SSW 15.0 mph - 0.00 in   Overcast
5:54 PM 71.1 °F 64.9 °F 81% 29.85 in 8.0 mi South 10.4 mph - 0.00 in Rain Light Rain
6:54 PM 70.0 °F 66.0 °F 87% 29.85 in 10.0 mi SSW 9.2 mph - 0.02 in   Overcast
7:54 PM 70.0 °F 64.9 °F 84% 29.85 in 10.0 mi South 10.4 mph - N/A   Overcast
8:54 PM 70.0 °F 64.9 °F 84% 29.87 in 10.0 mi SSW 8.1 mph - N/A   Overcast
9:54 PM 69.1 °F 66.0 °F 90% 29.86 in 8.0 mi South 11.5 mph - 0.01 in Rain Light Rain
10:52 PM 69.8 °F 66.2 °F 88% 29.86 in 5.0 mi South 11.5 mph - 0.00 in Rain Light Rain
10:54 PM 69.1 °F 66.0 °F 90% 29.86 in 5.0 mi South 11.5 mph - 0.00 in Rain Light Rain
11:36 PM 68.0 °F 66.0 °F 93% 29.86 in 2.5 mi South 8.1 mph - 0.05 in Rain Heavy Rain
11:54 PM 68.0 °F 66.0 °F 93% 29.85 in 2.5 mi South 11.5 mph - 0.10 in Rain Light Rain